STARLINK-33646, 63280

Orbit data source: Space-Track

STARLINK-33646, 63280 is a payload satellite owned by SpaceX/Seattle (US) in LEO that was launched on Sat, 15 Mar 2025 UTC via an FALCON 9 launch vehicle from the Air Force Eastern Test Range (AFETR). Payload-class satellites include a variety of spacecraft equipped with specific instruments for various scientific and technological missions. These include communications satellites like Starlink; space stations such as the ISS; scientific satellites like the Hubble; Earth observation satellites from companies like Planet Labs, Umbra, and HawkEye 360; GPS; miniature CubeSats for education and research; and military/defense satellites.

Loading next visibility...
Identifier
63280, 2025-053R
Orbit
LEO
Country
Flag of USUS
Related business
Manufacturer
SpaceX/Seattle
Mission
Operational Commercial Communications
Bus & Motor
STARLINK V2MO, Unknown motor
Mass
575 kg wet, ~530 kg dry
Launch date (UTC)
2025-03-15 (1 year ago)
Launch vehicle
FALCON 9
Launch site
Air Force Eastern Test Range (AFETR)
Object type
Payload
Rocket body
Debris
Shape & HBR
Box + 2 Pan, 17.7 m
Radar Cross Section
36.964 m², Large (>1 m²)

Expand to show TLE details & history
Last TLE update: 22 hours ago

TLE from 22 hours ago
0 STARLINK-33646
1 63280U 25053R   26171.00411976  .00012915  00000-0  47776-3 0  9991
2 63280  43.0018  23.7397 0001065 313.9472  46.1292 15.27598464 71844
Epoch: 2026-06-20T00:05Z
TLE epoch observation values (Epoch: 2026-06-20T00:05:55.947Z)
Latitude
0.00001°
Longitude
114.03163°
Altitude
482.263 km
Speed
7.626 km/s
True Right ascension
01h 34m 57s
True Declination
0° 00' 00"
Sunlit
Object was in daylight at epoch
Visualization orbit readout
Latitude
Unknown
Longitude
Unknown
Altitude
Unknown
Speed
Unknown
Apparent Right ascension
Unknown
Apparent Declination
Unknown
Sunlit
N/A
Visualization observer readout
Local Sidereal Time
08:33:22
Azimuth
Unknown
Elevation
Unknown
Doppler factor
Unknown
Orbital elements
Apogee altitude
485.67 km
Perigee altitude
484.208 km
Semi-major axis
6,863.076 km
Eccentricity
0.00011
Inclination
43.0018°
RAAN
23.7397°
Arg. of periapsis
313.9472°
True anomaly
46.138°
Mean anomaly
46.1292°
Eccentric anomaly
46.1336°
Mean motion
3.81738 °/min
Orbital period
94.31 mins
BSTAR
0.00047776
Loading maneuver chart data...
Computing Atmospheric mass density...
Loading historical data...
Loading historical data...
Loading historical data...
Loading historical data...
Loading historical data...
Loading historical data...
Loading historical data...

Documentation

Showing up to 5 results
|